Content
SEND FEEDBACK

Daily
Averages
Monthly
Summary
United States of America

SWAINSBORO, GEORGIA


Home > North America > United States > Georgia
Elevation: 328 feet     Latitude: 32 36N     Longitude: 082 22W

WEATHER
 
SELECT A DAY
Number of Records: 84,076;   Date Range: 7/4/11 - 12/24/14
 
SHARE

PRINT THIS DATA

[ ← Previous Day ]
WEATHER ALMANAC - JANUARY 31, 2013
[ Next Day → ]
[ °C ]   °F
Weather ElementAverageHighLow
Temperature44.7 °F53.6 °F (2:15 pm)35.6 °F (8:35 pm)
Dewpoint31.2 °F46.4 °F (12:35 am)24.8 °F (2:15 pm)
Humidity61.9 %87 % (8:35 pm)33 % (2:15 pm)
Barometer30.07 in30.22 in (11:15 pm)29.81 in (12:35 am)
Wind Speed9.6 mph18.4 mph (1:55 am)
Wind Gust34.5 mph (1:55 am)
Weather ElementAverage
Visibility10 mi
Wind DirectionWSW (237.4 °)

Weather ElementTotal
Precipitation---
Heating Degree Days20.4 (Base 65)
Averaged from 70 records on January 31, 2013
WEATHER CONDITIONS BREAKOUT
WIND DIRECTION BREAKOUT
WEATHER BY HOUR - JANUARY 31, 2013
[ °C ]   °F
Local TimeTemperatureDewpointHumidityBarometerVisibilityWind DirectionWind SpeedGust SpeedPrecipitationEventsConditions
12:35 AM51.8 °F46.4 °F82 %29.81 in10.0 miWest (270°)11.5 mph20.7 mphOvercast
12:55 AM51.8 °F46.4 °F82 %29.82 in10.0 miWest (280°)11.5 mph19.6 mphOvercast
1:15 AM51.8 °F46.4 °F82 %29.83 in10.0 miWest (280°)13.8 mph28.8 mphOvercast
1:35 AM51.8 °F44.6 °F76 %29.85 in10.0 miWest (280°)12.7 mph26.5 mphOvercast
1:55 AM51.8 °F42.8 °F71 %29.86 in10.0 miWest (280°)18.4 mph34.5 mphMostly Cloudy
2:15 AM50.0 °F41.0 °F71 %29.87 in10.0 miWNW (290°)17.3 mph27.6 mphMostly Cloudy
2:35 AM48.2 °F39.2 °F71 %29.88 in10.0 miWest (280°)17.3 mph31.1 mphScattered Clouds
2:55 AM46.4 °F39.2 °F76 %29.90 in10.0 miWNW (290°)16.1 mph25.3 mphScattered Clouds
3:15 AM46.4 °F37.4 °F71 %29.92 in10.0 miWNW (290°)17.3 mph25.3 mphMostly Cloudy
3:35 AM46.4 °F35.6 °F66 %29.93 in10.0 miWNW (290°)11.5 mph20.7 mphOvercast
3:55 AM44.6 °F35.6 °F71 %29.93 in10.0 miWest (280°)13.8 mph20.7 mphOvercast
4:15 AM44.6 °F33.8 °F66 %29.94 in10.0 miWest (280°)11.5 mph23.0 mphMostly Cloudy
4:35 AM42.8 °F33.8 °F70 %29.94 in10.0 miWest (280°)9.2 mph20.7 mphClear
4:55 AM42.8 °F32.0 °F66 %29.95 in10.0 miWNW (290°)11.5 mph17.3 mphClear
5:15 AM42.8 °F32.0 °F66 %29.96 in10.0 miWest (280°)10.4 mph19.6 mphClear
5:35 AM42.8 °F32.0 °F66 %29.97 in10.0 miWNW (290°)13.8 mph20.7 mphClear
5:55 AM41.0 °F32.0 °F70 %29.99 in10.0 miWNW (290°)11.5 mph17.3 mphClear
6:15 AM41.0 °F30.2 °F65 %30.01 in10.0 miWNW (300°)16.1 mph25.3 mphClear
6:35 AM41.0 °F30.2 °F65 %30.02 in10.0 miWNW (300°)15.0 mph20.7 mphClear
7:15 AM37.4 °F28.4 °F70 %30.03 in10.0 miNW (310°)12.7 mph19.6 mphClear
7:35 AM37.4 °F30.2 °F75 %30.06 in10.0 miWNW (290°)8.1 mphClear
7:55 AM37.4 °F30.2 °F75 %30.06 in10.0 miWNW (300°)12.7 mph18.4 mphClear
8:15 AM39.2 °F30.2 °F70 %30.07 in10.0 miWNW (290°)11.5 mph16.1 mphClear
8:35 AM39.2 °F30.2 °F70 %30.07 in10.0 miWNW (300°)9.2 mphClear
8:55 AM41.0 °F30.2 °F65 %30.07 in10.0 miNW (310°)11.5 mph19.6 mphClear
9:15 AM41.0 °F30.2 °F65 %30.08 in10.0 miWNW (300°)11.5 mph18.4 mphClear
9:35 AM41.0 °F30.2 °F65 %30.09 in10.0 miWNW (290°)12.7 mph21.9 mphClear
9:55 AM42.8 °F30.2 °F61 %30.09 in10.0 miNW (310°)12.7 mph19.6 mphClear
10:15 AM42.8 °F30.2 °F61 %30.10 in10.0 miWNW (300°)8.1 mphClear
10:35 AM44.6 °F30.2 °F57 %30.11 in10.0 miWNW (290°)11.5 mph18.4 mphClear
10:55 AM44.6 °F28.4 °F53 %30.11 in10.0 miWest (280°)11.5 mph21.9 mphClear
11:15 AM46.4 °F28.4 °F50 %30.11 in10.0 miWNW (300°)10.4 mph18.4 mphClear
11:35 AM46.4 °F28.4 °F50 %30.11 in10.0 miWNW (290°)13.8 mph20.7 mphClear
11:55 AM48.2 °F28.4 °F46 %30.11 in10.0 miNW (320°)15.0 mph18.4 mphClear
12:15 PM50.0 °F28.4 °F43 %30.11 in10.0 miWNW (290°)13.8 mph20.7 mphClear
12:35 PM50.0 °F26.6 °F40 %30.11 in10.0 miWNW (290°)13.8 mph25.3 mphClear
12:55 PM50.0 °F28.4 °F43 %30.11 in10.0 miWNW (290°)12.7 mph21.9 mphClear
1:15 PM51.8 °F26.6 °F38 %30.10 in10.0 miWest (280°)12.7 mph23.0 mphClear
1:35 PM51.8 °F26.6 °F38 %30.09 in10.0 miWest (270°)13.8 mph23.0 mphClear
1:55 PM51.8 °F26.6 °F38 %30.09 in10.0 miWNW (290°)13.8 mph25.3 mphClear
2:15 PM53.6 °F24.8 °F33 %30.09 in10.0 miNW (310°)17.3 mph24.2 mphClear
2:35 PM53.6 °F26.6 °F35 %30.09 in10.0 miWNW (290°)15.0 mph25.3 mphClear
2:55 PM53.6 °F24.8 °F33 %30.10 in10.0 miWNW (290°)10.4 mph24.2 mphClear
3:15 PM53.6 °F26.6 °F35 %30.10 in10.0 miWest (280°)16.1 mph26.5 mphClear
3:35 PM53.6 °F24.8 °F33 %30.10 in10.0 miWNW (300°)13.8 mph26.5 mphClear
3:55 PM53.6 °F26.6 °F35 %30.10 in10.0 miNW (310°)12.7 mph23.0 mphClear
4:15 PM53.6 °F24.8 °F33 %30.11 in10.0 miNW (310°)12.7 mph23.0 mphClear
4:35 PM53.6 °F26.6 °F35 %30.11 in10.0 miWNW (300°)10.4 mph20.7 mphClear
4:55 PM53.6 °F24.8 °F33 %30.11 in10.0 miWNW (300°)10.4 mph19.6 mphClear
5:15 PM51.8 °F24.8 °F35 %30.12 in10.0 miWNW (300°)11.5 mph16.1 mphClear
5:35 PM51.8 °F26.6 °F38 %30.12 in10.0 miWNW (300°)5.8 mphClear
5:55 PM50.0 °F26.6 °F40 %30.13 in10.0 miWNW (300°)3.5 mphClear
6:15 PM46.4 °F30.2 °F53 %30.14 in10.0 miCalmClear
6:35 PM42.8 °F32.0 °F66 %30.14 in10.0 miCalmClear
6:55 PM41.0 °F32.0 °F70 %30.15 in10.0 miCalmClear
7:15 PM39.2 °F32.0 °F75 %30.15 in10.0 miCalmClear
7:35 PM37.4 °F32.0 °F81 %30.16 in10.0 miCalmClear
7:55 PM37.4 °F32.0 °F81 %30.17 in10.0 miCalmClear
8:15 PM37.4 °F32.0 °F81 %30.17 in10.0 miCalmClear
8:35 PM35.6 °F32.0 °F87 %30.17 in10.0 miCalmClear
8:55 PM37.4 °F30.2 °F75 %30.19 in10.0 miWest (280°)3.5 mphClear
9:15 PM37.4 °F32.0 °F81 %30.20 in10.0 miCalmClear
9:35 PM35.6 °F32.0 °F87 %30.21 in10.0 miCalmClear
9:55 PM35.6 °F30.2 °F81 %30.20 in10.0 miWest (260°)3.5 mphClear
10:15 PM35.6 °F30.2 °F81 %30.20 in10.0 miCalmClear
10:35 PM35.6 °F30.2 °F81 %30.21 in10.0 miCalmClear
10:55 PM35.6 °F30.2 °F81 %30.21 in10.0 miWNW (300°)3.5 mphClear
11:15 PM35.6 °F30.2 °F81 %30.22 in10.0 miNW (310°)3.5 mphClear
11:35 PM35.6 °F28.4 °F75 %30.21 in10.0 miCalmClear
11:55 PM35.6 °F28.4 °F75 %30.21 in10.0 miWest (270°)3.5 mphClear
Hourly data recorded from KSBO, located miles away from Swainsboro, Georgia







STORIES FROM OUR PARTNERS